This demonstration page uses our WeatherBlox Daily Observations layout. Learn more.

Left ArrowRight Arrow

34.74481, -87.66753

Hourly Observations for May 31, 2017

Temp ( °F °C ) Dew Point ( °F °C ) Humidity (%) Winds ( mph kmh ) Pressure ( in mb ) Visibility ( mi km ) Precip ( " mm )
12:53 am 00:53 Mostly Clear 66 18.9 60 15.6 81 81 SSE 6 9 30.08 1019 10 16 0.00 0.00
1:53 am 01:53 Partly Cloudy 66 18.9 59 15 78 78 Calm 30.08 1019 10 16 0.00 0.00
2:53 am 02:53 Mostly Cloudy 64 17.8 60 15.6 87 87 Calm 30.08 1019 10 16 0.00 0.00
3:53 am 03:53 Clear 63 17.2 60 15.6 90 90 Calm 30.08 1019 10 16 0.00 0.00
4:53 am 04:53 Clear 63 17.2 60 15.6 90 90 Calm 30.09 1019 10 16 0.00 0.00
5:53 am 05:53 Sunny 62 16.7 60 15.6 93 93 Calm 30.10 1019 10 16 0.00 0.00
6:53 am 06:53 Sunny 67 19.4 63 17.2 87 87 Calm 30.11 1020 10 16 0.00 0.00
7:53 am 07:53 Sunny 69 20.6 63 17.2 81 81 VRB 3 6 30.11 1020 10 16 0.00 0.00
8:53 am 08:53 Sunny 74 23.3 63 17.2 69 69 VRB 5 7 30.13 1020 10 16 0.00 0.00
9:53 am 09:53 Sunny 79 26.1 63 17.2 58 58 W 7 11 30.12 1020 10 16 0.00 0.00
10:53 am 10:53 Sunny 81 27.2 64 17.8 57 57 NNW 5 7 30.11 1020 10 16 0.00 0.00
11:53 am 11:53 Mostly Sunny 83 28.3 65 18.3 55 55 WSW 5 7 30.11 1020 10 16 0.00 0.00
12:53 pm 12:53 Mostly Sunny 86 30 62 16.7 45 45 WNW 6 9 30.09 1019 10 16 0.00 0.00
1:53 pm 13:53 Partly Cloudy 88 31.1 64 17.8 45 45 NNE 6 9 30.07 1018 10 16 0.00 0.00
2:53 pm 14:53 Mostly Sunny 87 30.6 58 14.4 37 37 Calm 30.06 1018 10 16 0.00 0.00
3:53 pm 15:53 Mostly Sunny 89 31.7 58 14.4 35 35 W 7 11 30.04 1017 10 16 0.00 0.00
4:53 pm 16:53 Sunny 88 31.1 57 13.9 35 35 VRB 6 9 30.03 1017 10 16 0.00 0.00
5:53 pm 17:53 Mostly Sunny 86 30 57 13.9 37 37 N 5 7 30.04 1017 10 16 0.00 0.00
6:53 pm 18:53 Sunny 84 28.9 60 15.6 44 44 Calm 30.04 1017 10 16 0.00 0.00
7:53 pm 19:53 Sunny 76 24.4 64 17.8 67 67 Calm 30.05 1018 10 16 0.00 0.00
8:53 pm 20:53 Clear 72 22.2 64 17.8 76 76 Calm 30.06 1018 10 16 0.00 0.00
9:53 pm 21:53 Clear 69 20.6 64 17.8 84 84 Calm 30.08 1019 10 16 0.00 0.00
10:53 pm 22:53 Clear 69 20.6 64 17.8 84 84 Calm 30.08 1019 10 16 0.00 0.00
11:53 pm 23:53 Clear 68 20 63 17.2 84 84 Calm 30.07 1018 10 16 0.00 0.00

Powered by AerisWeather